sat.trackr.live / text

‹ back to catalog

OPTUS-X (ADS-01)

NORAD 62006 · 2024-212A

PAYLOAD ACTIVE UNKNOWN

§ Identity

Operator
Country
AUS
Launch date
2024-11-17
Launch site
AFETR
Launch vehicle
Mass (kg)
RCS (m²)

Purposes: comms

External: N2YO · Heavens-Above · Gunter

§ Orbital elements

Epoch: 2026-09-19T19:25:29.701920Z

Period
1,436.09 min
Inclination
0.0314°
Eccentricity
0.0002624
Mean motion
1.00272049 rev/d
Perigee alt
35,775.5 km
Apogee alt
35,797.6 km
Semi-major
42,164.7 km
B*
0.0000e+0
RAAN
264.7337°
Arg perigee
269.5792°
Mean anomaly
272.1917°
Rev number
670

§ Raw data

OPTUS-X (ADS-01)1 62006U 24212A   26262.80937155 -.00000147  00000+0  00000+0 0  99922 62006   0.0314 264.7337 0002624 269.5792 272.1917  1.00272049  6707

JSON: /api/v1/satellites/62006 · /tle

For live sub-satellite position, see the globe view (requires WebGL).

§ Visibility from observer

Set your observer location to see the next 7 days of passes ≥ 10°. The values pass through the URL so the page stays shareable.

No JS? Fill the form by hand. The geolocation button needs JavaScript.